Dewpoint
50 50 51 51 52 52 51 51 52 52 52 52 52 52 53 53 53 53 53 54 54 54 53 53 52 53 53 52 52 52 54 48 45 43 42 42 46 60 58 51 56 55 57 39 38 34 35 36 33 30 25 19 13 12 15 17 15 15 15 13 12 2 -1 -2 -4 -6 -2 2 5 7 6 2 11 29 34 38 36 41 43 49 48 48 55 59 57 61 64 66
50 50 51 51 51 51 52 51 51 51 51 52 52 53 53 53 53 53 53 53 53 53 53 53 53 53 52 52 52 53 51 46 43 41 40 47 55 56 57 57 56 56 56 36 30 33 33 32 30 29 22 15 11 9 14 18 17 15 11 10 4 4 2 -2 -3 -5 -0 3 8 6 6 5 15 31 37 33 30 38 41 52 53 48 57 58 62 63 65 66
50 50 50 50 50 50 51 51 50 51 51 52 52 53 53 53 53 53 53 53 53 53 53 53 53 52 52 53 52 54 50 46 44 40 38 54 55 56 59 59 59 60 40 28 27 31 30 27 26 24 17 11 8 5 12 15 14 12 10 5 2 1 1 3 3 3 3 9 8 6 5 6 14 27 33 41 38 41 37 47 45 53 54 57 60 62 65 66
50 50 50 50 50 50 50 51 52 52 52 53 52 52 53 53 52 53 53 54 54 52 53 53 52 52 52 52 54 51 47 45 37 38 44 60 56 57 59 60 60 55 37 29 25 28 26 24 22 21 13 8 6 7 13 14 12 9 7 3 1 -1 -1 4 6 5 4 8 8 6 6 5 10 15 33 37 36 36 38 42 50 42 51 54 60 61 65 66
50 50 50 50 50 50 50 51 51 52 52 52 52 52 53 53 52 53 53 54 53 53 53 52 52 52 52 52 54 50 46 32 36 42 51 60 60 60 59 60 60 40 32 32 24 22 22 19 19 18 12 7 5 10 10 13 13 11 4 2 2 4 5 5 2 1 5 9 8 6 4 4 9 14 24 29 32 33 36 36 39 40 52 57 60 61 64 65
50 50 50 50 50 51 50 50 51 51 51 51 51 51 51 52 52 52 53 53 53 53 52 52 52 52 52 53 51 46 41 11 32 41 63 60 59 58 60 60 59 40 29 30 21 18 18 16 15 15 11 7 2 7 7 10 14 12 7 3 4 5 5 6 4 6 6 4 4 4 5 7 7 10 19 26 28 34 38 34 38 48 51 56 60 63 63 65
50 50 50 50 50 50 50 50 50 50 50 50 51 51 51 51 52 52 53 53 52 52 53 52 52 52 52 53 47 45 39 28 22 48 61 60 58 56 60 59 57 42 30 25 19 18 18 16 15 13 8 4 3 3 8 9 11 12 5 9 11 7 8 7 6 6 5 4 7 6 7 6 6 6 9 19 28 32 38 41 44 50 51 50 60 63 62 64
50 50 50 50 50 50 50 50 50 50 51 51 50 50 51 51 52 52 52 52 52 52 52 52 52 52 53 47 43 43 40 26 43 53 62 60 54 51 54 34 34 36 32 22 17 13 13 12 12 11 6 3 3 1 8 8 6 9 8 6 4 5 7 8 4 4 4 3 5 7 7 6 5 5 11 19 27 32 31 35 39 46 52 53 59 62 61 63
50 50 50 50 50 50 50 50 50 50 51 51 51 51 50 51 51 51 52 51 52 52 52 52 52 52 53 48 42 36 24 37 43 51 56 47 39 40 33 29 30 31 28 21 15 12 10 8 9 8 4 4 3 -0 8 7 4 10 11 5 2 10 10 7 4 3 2 3 3 5 6 5 4 4 6 12 26 27 30 29 31 46 50 48 60 61 61 62
50 49 49 49 50 50 50 50 51 50 50 50 51 51 51 51 51 51 51 51 51 52 52 52 52 53 49 46 43 31 28 39 41 50 48 41 33 34 33 28 27 28 24 19 13 11 10 9 9 8 5 4 2 1 6 5 6 12 11 5 -0 4 9 8 5 3 2 3 2 2 4 5 5 5 3 8 20 28 27 27 28 44 47 50 58 60 61 62
49 49 49 49 50 50 50 50 50 50 50 50 50 51 50 51 51 51 51 51 51 51 51 52 52 52 46 44 35 23 31 33 38 45 47 37 32 31 33 28 26 25 22 17 13 11 11 9 10 8 7 7 9 5 6 6 11 7 8 5 1 1 7 7 4 3 2 0 1 3 2 4 4 5 4 5 22 25 21 26 30 40 46 51 56 58 60 63
49 49 49 49 49 50 50 50 50 50 50 50 50 51 50 50 50 50 51 51 51 51 51 51 52 48 46 41 34 26 28 30 36 42 44 37 32 32 33 29 25 23 20 17 15 14 14 12 13 11 8 8 7 8 8 7 10 8 4 5 5 2 5 7 4 4 4 1 3 5 2 2 2 5 6 8 21 22 23 28 33 35 44 48 52 56 59 61
49 49 49 49 49 49 50 50 50 50 50 50 50 50 50 50 50 50 50 50 51 51 51 52 50 47 47 37 30 30 26 25 30 38 41 41 34 31 29 27 25 23 22 19 17 15 14 14 14 13 11 15 5 5 5 4 7 6 4 5 3 3 3 4 2 2 0 1 1 0 0 0 1 5 8 18 28 21 20 28 33 34 45 48 51 52 58 62
49 49 49 49 49 49 49 50 50 50 50 50 50 49 50 50 50 50 50 51 51 51 52 53 51 48 45 38 33 28 27 26 29 32 37 37 33 28 27 27 24 24 24 22 19 17 16 15 14 13 11 13 10 13 9 7 7 5 3 3 5 1 -1 -2 -1 -0 -2 -1 -1 1 6 -1 -0 3 6 15 27 23 24 26 32 34 42 51 50 54 58 61
49 48 49 49 49 49 49 49 50 50 50 49 49 49 49 50 50 50 51 50 51 51 52 51 49 48 47 41 34 41 51 34 27 28 34 35 31 27 25 26 24 24 24 25 24 22 18 14 15 13 15 19 15 17 9 7 6 4 1 2 0 -1 -2 -1 1 -1 -4 -1 1 2 8 -2 -3 -2 5 12 23 22 23 25 29 36 43 49 52 50 55 60
49 48 48 49 49 49 49 49 50 49 49 49 49 48 49 49 50 50 50 51 52 52 50 49 48 45 42 34 31 51 37 28 24 26 31 34 30 26 24 24 22 21 22 22 22 22 18 14 14 15 16 14 12 15 11 6 6 4 3 13 1 -1 -3 -2 -2 -2 -2 -2 0 0 -2 -4 -6 -4 3 14 21 20 21 23 31 37 44 51 49 52 59 61
48 48 48 49 49 49 49 49 49 50 49 49 50 49 49 51 50 50 50 52 51 50 48 46 44 47 42 29 31 28 28 23 22 25 31 32 29 25 24 21 20 21 21 20 19 17 16 15 16 18 16 13 11 10 8 8 7 6 2 1 4 1 -2 -6 -2 0 1 -2 -2 -0 -3 -3 8 0 3 20 19 17 19 21 29 38 45 51 49 54 58 61
48 48 48 48 48 49 49 49 49 49 49 49 50 49 48 50 51 50 50 50 49 48 46 46 44 44 40 38 26 19 23 27 28 29 32 29 29 25 21 19 19 19 19 18 16 12 14 15 16 18 19 22 16 9 10 6 12 15 9 7 3 3 -1 -7 -3 2 2 -2 -3 2 1 -2 7 15 19 21 19 19 23 21 29 38 46 49 48 52 56 59
48 48 48 48 49 49 49 49 49 49 49 49 50 50 51 51 49 49 47 47 45 47 39 43 44 32 25 26 23 25 24 27 29 32 30 29 28 22 18 18 19 18 14 14 10 10 14 17 22 16 14 13 13 7 5 5 4 6 7 5 2 4 -2 -4 -6 1 4 -2 -4 1 2 -3 -3 4 17 25 23 22 24 26 28 39 44 49 48 51 52 55
48 48 48 48 49 49 49 49 49 49 49 48 46 50 51 49 50 49 48 46 42 34 28 28 39 32 28 26 24 20 28 28 27 27 31 29 23 17 16 17 16 14 12 15 12 17 17 16 20 17 15 17 18 18 15 5 5 -2 3 7 1 -3 4 3 -3 1 3 1 2 -0 3 0 -1 0 16 22 25 25 24 26 28 38 44 48 48 53 56 58
48 48 48 48 48 49 49 49 50 49 50 47 47 42 31 23 21 25 33 34 42 38 32 29 25 26 26 26 27 22 25 24 25 25 30 25 18 15 14 13 13 16 12 9 18 21 21 16 19 19 17 20 19 21 23 23 20 11 9 7 2 -1 3 2 -1 8 8 17 3 4 -1 4 7 6 6 20 26 23 25 27 32 39 44 48 50 52 56 58
48 48 48 48 48 48 49 49 49 50 49 48 45 38 28 22 34 33 34 25 24 26 31 33 30 26 25 25 29 28 25 22 21 26 28 22 16 10 12 8 9 7 12 16 18 23 22 17 18 20 18 21 24 23 19 22 23 19 12 9 6 -1 -0 -0 1 12 12 15 12 6 3 4 9 10 10 16 27 28 28 30 37 38 42 47 51 51 56 57
48 48 48 48 48 48 48 49 49 49 48 47 42 36 28 30 32 31 36 32 31 31 29 25 25 27 26 27 27 29 25 22 21 24 26 21 15 10 10 6 8 5 10 17 22 25 22 13 18 17 20 23 24 24 23 24 25 17 12 10 6 2 2 6 16 15 15 16 13 10 8 11 15 16 16 21 29 31 30 30 36 38 42 47 50 51 55 57
48 48 48 48 48 48 49 49 49 48 48 42 38 33 29 24 31 31 36 34 29 26 24 25 26 25 26 24 27 28 23 22 24 23 27 21 14 11 12 7 6 7 10 14 21 19 12 11 11 17 21 23 27 24 22 17 12 18 18 6 5 2 1 -1 13 17 21 18 21 14 21 16 18 13 13 20 28 31 29 31 35 39 41 48 51 54 55 56
47 47 48 48 48 48 48 49 45 46 45 46 39 32 25 29 36 35 40 36 33 32 30 24 26 26 27 28 30 27 23 22 22 25 28 23 16 11 13 11 10 8 12 16 15 14 12 15 19 15 16 14 19 18 19 21 12 13 18 15 9 7 4 1 20 17 20 18 19 16 16 15 16 13 18 16 24 30 33 36 36 40 41 47 50 52 55 57
47 47 47 48 48 47 48 47 47 38 32 26 19 25 32 33 32 40 40 34 23 21 29 24 30 26 32 29 32 27 23 19 22 24 28 25 22 11 14 12 12 12 14 15 11 15 13 17 20 18 18 14 12 15 18 18 13 13 12 12 12 7 11 10 16 20 17 14 17 19 12 10 10 15 21 21 24 30 36 36 36 38 40 45 47 50 53 54
47 47 47 48 48 47 42 34 39 30 23 22 28 36 34 30 44 46 40 30 24 24 24 29 26 32 31 29 28 24 20 17 22 25 27 27 19 15 12 10 12 13 15 21 17 11 12 15 14 14 19 15 14 13 20 16 12 10 16 8 7 9 12 15 14 16 15 17 26 18 11 10 12 17 24 24 29 29 32 34 35 35 41 43 47 49 53 54
47 48 48 47 47 47 46 45 37 23 15 26 29 28 27 35 45 49 37 19 13 22 21 27 27 34 33 29 25 20 21 18 20 23 26 24 21 14 13 12 11 11 15 16 14 17 22 21 19 15 17 11 9 10 17 16 10 9 12 7 6 8 15 16 16 19 17 17 15 18 17 14 10 23 23 26 27 27 28 33 34 33 38 44 47 49 52 53
48 48 48 47 47 48 48 45 42 34 25 30 29 27 27 42 44 40 29 21 30 17 25 24 27 25 26 28 23 19 22 21 18 22 25 23 18 14 9 13 14 8 11 16 13 19 14 13 14 11 11 12 12 12 11 13 13 13 14 9 6 2 4 14 14 11 16 15 16 20 21 11 8 20 21 27 25 24 25 30 34 40 43 44 49 51 51 51
48 48 47 48 47 47 48 48 44 38 32 29 31 33 39 42 40 29 22 17 16 14 16 21 21 23 25 24 22 20 18 21 21 24 24 21 17 15 11 11 12 11 8 10 9 12 14 19 17 9 10 12 13 7 10 12 9 17 16 11 6 2 10 15 16 14 16 14 15 19 20 11 7 19 20 22 24 26 27 38 41 40 42 47 50 50 53 53
48 48 47 48 43 39 41 37 41 39 38 42 42 39 40 40 31 22 17 16 13 16 18 19 18 24 23 21 20 19 18 21 21 22 20 18 14 13 13 12 13 13 14 14 11 8 12 15 14 12 14 11 15 14 17 15 7 13 16 11 11 15 15 17 19 17 15 12 16 15 20 18 11 26 19 22 22 25 34 33 38 38 39 45 51 49 53 54
48 48 48 47 45 44 38 26 38 36 39 45 44 39 35 26 26 19 20 14 10 14 15 17 19 19 21 20 18 16 18 20 20 20 17 14 15 12 13 14 17 13 12 13 10 11 15 12 11 11 18 14 16 13 10 12 13 12 16 14 17 15 17 10 13 11 10 13 16 14 16 18 12 29 30 19 30 35 30 27 33 36 38 42 48 50 51 51
48 48 48 47 47 46 43 41 43 46 48 46 40 33 30 23 20 19 18 14 12 16 17 18 20 18 20 19 16 15 16 19 19 19 16 12 12 12 11 11 11 15 13 19 15 14 16 11 9 9 10 15 13 9 12 9 12 13 15 17 15 11 12 13 9 10 11 15 20 18 20 14 14 30 30 36 35 36 36 36 37 37 36 36 40 48 48 52
48 48 48 51 47 45 46 51 49 50 49 44 32 25 24 22 19 24 21 13 9 12 14 15 18 17 18 18 17 16 15 18 18 18 16 14 12 18 11 10 11 13 18 20 10 13 11 11 12 11 14 13 12 11 13 14 11 10 11 11 16 15 14 12 8 10 9 11 20 16 20 16 12 38 30 36 36 36 37 38 43 44 44 42 37 36 44 47
48 50 52 54 50 47 49 46 50 53 51 36 21 19 20 20 20 15 16 10 6 3 12 16 15 15 14 16 18 17 19 21 19 17 16 14 16 16 16 10 11 11 11 18 22 21 10 17 13 10 11 12 10 11 12 12 12 10 9 10 14 16 19 10 19 16 15 11 19 20 18 15 25 32 33 35 34 34 36 40 40 41 36 35 35 38 41 48
48 53 52 50 47 47 48 46 51 53 45 28 18 14 17 22 17 9 9 8 5 4 0 8 11 11 14 13 16 15 17 18 17 18 18 15 15 15 14 13 10 12 15 14 25 15 15 15 12 10 10 11 10 10 11 12 18 16 9 12 14 15 13 14 19 23 24 13 13 19 20 21 26 28 31 33 35 35 38 38 35 39 42 46 45 44 45 47
47 48 44 45 39 41 44 45 46 51 42 26 16 13 19 19 14 10 11 7 9 7 4 4 9 7 15 14 18 16 17 16 18 17 22 17 19 15 15 15 13 12 13 16 22 16 18 15 11 11 10 12 12 11 10 11 11 15 14 12 13 11 17 21 13 16 13 9 12 17 17 16 16 24 25 30 33 37 39 40 42 46 46 45 46 47 48 50
46 46 46 40 39 42 45 46 50 48 34 24 18 23 14 14 13 12 6 13 14 13 8 5 9 3 9 11 18 16 18 14 27 20 22 23 25 18 16 16 16 14 12 13 17 24 17 16 12 12 12 12 11 13 12 11 11 12 14 15 13 14 14 16 17 13 13 11 7 10 14 14 13 24 23 28 35 39 40 42 42 43 45 47 47 47 48 51
47 41 36 40 40 43 48 50 50 42 28 16 18 17 14 12 12 12 6 9 13 11 6 1 7 4 5 10 14 23 29 18 15 20 17 32 21 27 17 17 17 16 15 12 15 23 25 17 16 12 11 11 11 10 11 12 10 11 12 12 13 18 21 13 14 14 16 12 14 15 17 14 31 32 23 32 37 40 41 41 42 44 46 48 46 47 47 50
45 40 35 42 42 45 49 51 46 36 25 12 11 15 13 10 8 11 12 16 18 14 13 9 3 10 10 8 9 25 23 30 17 20 16 25 20 26 21 19 20 18 17 18 16 16 27 27 17 16 13 12 12 13 12 10 13 10 12 13 13 24 19 15 27 13 12 11 11 11 11 26 34 36 36 37 40 42 42 43 45 46 45 45 46 48 48 48
40 33 36 43 40 44 46 45 38 29 22 18 13 7 6 7 11 12 14 12 15 12 10 10 11 12 14 14 9 11 29 22 27 23 28 32 21 25 22 19 18 18 17 17 16 23 20 24 20 23 15 14 12 11 9 8 9 13 13 13 10 14 14 13 16 16 17 14 15 12 14 33 36 37 38 38 40 44 42 44 44 46 46 48 48 48 48 47
40 29 34 42 46 46 42 38 34 31 24 15 10 7 6 29 15 18 18 17 17 14 11 13 17 16 16 14 13 9 11 16 22 24 23 31 36 28 29 21 19 17 18 20 20 29 31 28 24 19 18 19 14 11 11 11 13 11 11 12 10 15 14 15 12 15 18 13 11 15 15 29 38 37 39 38 39 42 44 45 45 46 47 47 48 49 49 50
32 30 37 39 46 42 36 33 31 27 26 19 9 8 10 16 20 19 16 15 17 16 12 13 13 16 15 14 13 10 10 16 14 24 25 28 30 28 22 19 19 18 17 21 21 28 32 26 23 17 17 17 15 14 16 13 11 10 12 15 14 15 16 15 14 21 18 16 12 12 12 29 39 38 40 41 41 43 45 46 45 46 47 47 48 50 49 49
30 31 34 37 44 41 35 28 23 20 24 21 22 22 18 15 16 15 13 12 13 14 10 11 12 9 12 10 15 14 13 17 12 15 27 23 29 31 24 23 20 20 21 26 24 31 23 25 22 18 18 17 28 16 14 13 11 15 14 17 12 12 16 21 20 22 17 19 15 14 12 30 40 39 38 38 41 44 46 47 48 47 48 48 48 48 48 48
33 37 34 34 38 39 34 35 33 30 30 31 30 29 25 22 18 18 21 18 14 16 21 19 15 15 12 11 15 14 12 12 22 16 15 31 34 32 29 27 21 23 22 25 35 24 22 30 25 20 20 18 19 17 16 17 16 16 16 18 20 13 22 23 17 19 17 21 17 18 26 36 37 38 38 39 40 44 47 49 49 47 47 47 47 47 47 47
23 22 27 33 38 36 36 36 36 34 32 32 28 29 27 26 20 20 19 21 21 22 20 17 17 19 17 14 17 14 12 13 13 23 22 20 26 24 25 25 24 23 33 42 34 30 29 33 30 29 24 25 26 23 25 22 21 17 15 16 21 21 19 24 24 17 15 19 19 21 25 34 33 36 36 37 42 46 47 48 47 45 45 46 47 46 47 47
30 26 26 23 33 31 33 34 32 34 33 35 27 30 30 24 24 21 18 25 21 19 19 18 15 20 22 17 23 20 12 8 10 14 19 20 21 24 25 25 25 32 45 34 33 27 28 28 31 30 27 27 26 27 26 23 22 17 17 21 18 23 27 27 20 17 23 24 17 39 37 35 33 35 35 38 43 45 45 45 45 45 45 45 45 45 45 44
24 28 31 35 31 27 29 31 33 33 35 33 31 31 28 26 26 29 21 17 21 23 21 19 17 13 16 20 24 23 20 19 18 20 15 21 21 25 21 27 30 40 35 27 29 30 30 25 31 29 25 24 25 28 25 22 22 23 24 29 29 28 28 27 30 31 31 20 15 36 37 36 34 34 37 41 42 45 44 45 44 44 44 43 43 42 42 43
29 31 31 37 31 35 35 35 36 34 33 35 30 29 30 28 27 23 24 27 18 27 19 25 25 16 14 16 21 25 30 22 25 33 38 33 28 29 26 22 25 32 28 29 28 32 30 25 31 26 25 24 25 24 23 23 23 22 25 25 28 30 32 33 33 34 33 36 39 38 38 36 35 35 38 41 43 44 43 42 42 41 41 42 41 41 40 40
27 32 26 32 33 33 36 37 35 33 32 33 29 33 29 30 29 22 22 27 29 29 25 30 24 19 20 19 22 31 35 37 36 31 37 38 34 36 35 32 25 26 26 30 30 37 31 27 33 28 26 25 26 24 24 24 26 26 23 23 26 29 28 31 34 37 38 39 39 37 36 34 36 38 38 40 41 41 41 39 39 39 38 39 39 38 38 37
35 34 38 34 20 25 28 32 33 30 29 30 29 32 32 29 29 24 23 21 25 27 25 27 26 29 24 26 29 28 27 32 32 32 32 32 29 30 30 30 24 27 22 30 33 39 37 30 30 28 23 23 23 24 23 23 25 25 26 27 26 28 30 32 29 36 34 35 36 35 32 32 34 36 37 37 38 39 38 38 38 37 36 36 34 35 34 34
39 34 39 34 24 26 21 27 29 28 25 29 31 30 30 30 26 27 27 24 23 23 25 26 30 30 29 30 28 27 27 28 28 27 24 23 23 23 21 21 21 30 30 32 34 30 30 29 27 25 22 22 22 21 22 23 24 21 25 26 30 33 31 32 31 34 39 39 34 30 34 33 34 35 34 34 35 34 35 34 33 32 31 31 31 32 32 33